Location: Riverside
(39.1734°N, 77.8561°W)
Time: 21:27:11
(UTC+00:00)

ESTCUBE 1 - Visible Passes

Search period start: 26 May 2019 00:00
Search period end: 05 June 2019 00:00
Orbit: 646 x 661 km, 98.0° (Epoch: 26 May)

Date Brightness Start Highest point End Pass type
(mag) Time Alt. Az. Time Alt. Az. Time Alt. Az.
26 May ? 03:30:45 43° NE 03:30:45 43° NE 03:34:35 10° N visible
26 May ? 05:08:37 14° WNW 05:08:37 14° WNW 05:09:59 10° NW visible
27 May ? 03:58:47 61° NNW 03:58:47 61° NNW 04:02:31 10° NNW visible
28 May ? 02:48:57 17° ENE 02:49:23 17° ENE 02:52:19 10° NNE visible
28 May ? 04:26:49 37° WNW 04:26:49 37° WNW 04:30:05 10° NNW visible
29 May ? 03:16:59 32° ENE 03:16:59 32° ENE 03:20:55 10° N visible
29 May ? 04:54:51 20° WNW 04:54:51 20° WNW 04:57:11 10° NW visible
30 May ? 03:45:01 60° NE 03:45:01 60° NE 03:49:00 10° N visible
31 May ? 02:35:11 12° ENE 02:36:04 13° ENE 02:38:01 10° NE visible
31 May ? 04:13:03 52° WNW 04:13:03 52° WNW 04:16:45 10° NNW visible
01 Jun ? 03:03:13 24° ENE 03:03:32 24° ENE 03:07:07 10° NNE visible
01 Jun ? 04:41:06 27° WNW 04:41:06 27° WNW 04:44:07 10° NW visible
02 Jun ? 03:31:16 46° ENE 03:31:16 46° ENE 03:35:25 10° N visible
02 Jun ? 05:09:08 14° WNW 05:09:08 14° WNW 05:10:45 10° NW visible
03 Jun ? 03:59:18 71° NNW 03:59:18 71° NNW 04:03:19 10° NNW visible
04 Jun ? 02:49:29 17° ENE 02:50:11 18° ENE 02:53:09 10° NNE visible
04 Jun ? 04:27:21 39° WNW 04:27:21 39° WNW 04:30:53 10° NNW visible
